AAL1727 KCLT-KJFK

Flight info

Callsign AAL1727
Flight time N/A
Altitude 35000
Route BARMY5 TYI Q64 SAWED Q108 SIE CAMRN5
Aircraft B738/M-SDE2E3FGHIRWXY/LB1

Departure

Time 2026-05-06 00:20
Airport Charlotte Douglas International Airport (KCLT)

Arrival

Time N/A
Airport John F. Kennedy International Airport (KJFK)
Time Latitude Longitude Altitude Speed Heading
2026-05-06 00:01 35.21949 -80.94452 731 ft 0 kts 300°
2026-05-06 00:09 35.21942 -80.94439 730 ft 3 kts 300°
2026-05-06 00:09 35.21934 -80.94421 730 ft 3 kts 293°
2026-05-06 00:10 35.21930 -80.94401 731 ft 3 kts 245°
2026-05-06 00:10 35.21939 -80.94390 729 ft 3 kts 187°
2026-05-06 00:10 35.21959 -80.94389 730 ft 3 kts 180°
2026-05-06 00:10 35.21960 -80.94389 730 ft 2 kts 180°
2026-05-06 00:14 35.21955 -80.94389 730 ft 3 kts 180°
2026-05-06 00:14 35.21913 -80.94389 729 ft 9 kts 180°
2026-05-06 00:15 35.21842 -80.94386 731 ft 10 kts 177°
2026-05-06 00:15 35.21771 -80.94382 731 ft 10 kts 176°
2026-05-06 00:15 35.21699 -80.94376 731 ft 11 kts 176°
2026-05-06 00:15 35.21639 -80.94326 731 ft 12 kts 104°
2026-05-06 00:16 35.21628 -80.94228 731 ft 11 kts 91°
2026-05-06 00:16 35.21665 -80.94135 731 ft 15 kts 48°
2026-05-06 00:16 35.21736 -80.94039 731 ft 15 kts 48°
2026-05-06 00:16 35.21805 -80.93945 731 ft 14 kts 48°
2026-05-06 00:17 35.21871 -80.93855 731 ft 14 kts 48°
2026-05-06 00:17 35.21933 -80.93771 732 ft 13 kts 48°
2026-05-06 00:17 35.22004 -80.93712 732 ft 13 kts 359°
2026-05-06 00:17 35.22092 -80.93721 732 ft 12 kts 355°
2026-05-06 00:18 35.22176 -80.93729 732 ft 12 kts 355°
2026-05-06 00:18 35.22260 -80.93734 732 ft 12 kts 356°
2026-05-06 00:18 35.22340 -80.93740 732 ft 12 kts 356°
2026-05-06 00:18 35.22426 -80.93749 732 ft 12 kts 355°
2026-05-06 00:19 35.22498 -80.93727 733 ft 11 kts 62°
2026-05-06 00:19 35.22510 -80.93642 734 ft 7 kts 96°
2026-05-06 00:19 35.22486 -80.93621 735 ft 0 kts 173°
2026-05-06 00:20 35.22369 -80.93609 735 ft 49 kts 176°
2026-05-06 00:20 35.21789 -80.93560 734 ft 116 kts 176°
2026-05-06 00:20 35.20793 -80.93478 771 ft 167 kts 176°
2026-05-06 00:20 35.19615 -80.93322 1370 ft 177 kts 175°
2026-05-06 00:21 35.18332 -80.93130 1940 ft 194 kts 178°
2026-05-06 00:21 35.16915 -80.93008 2281 ft 216 kts 176°
2026-05-06 00:21 35.15332 -80.92771 2551 ft 243 kts 169°
2026-05-06 00:21 35.13821 -80.91806 3330 ft 258 kts 139°
2026-05-06 00:22 35.12941 -80.89877 4271 ft 268 kts 108°
2026-05-06 00:22 35.12993 -80.87569 5148 ft 282 kts 77°
2026-05-06 00:22 35.13596 -80.85273 5976 ft 287 kts 76°
2026-05-06 00:22 35.14212 -80.82901 6769 ft 292 kts 76°
2026-05-06 00:23 35.14802 -80.80536 7468 ft 298 kts 75°
2026-05-06 00:23 35.15390 -80.78085 8218 ft 303 kts 75°
2026-05-06 00:23 35.15972 -80.75579 8956 ft 309 kts 74°
2026-05-06 00:23 35.16552 -80.73021 9707 ft 315 kts 74°
2026-05-06 00:24 35.17132 -80.70414 10349 ft 323 kts 74°
2026-05-06 00:24 35.17737 -80.67658 10562 ft 347 kts 74°
2026-05-06 00:24 35.18376 -80.64715 10784 ft 368 kts 74°
2026-05-06 00:24 35.19038 -80.61646 11298 ft 377 kts 74°
2026-05-06 00:25 35.19708 -80.58520 11965 ft 382 kts 74°
2026-05-06 00:25 35.20383 -80.55362 12593 ft 387 kts 74°
2026-05-06 00:25 35.21067 -80.52158 13261 ft 392 kts 74°
2026-05-06 00:25 35.21759 -80.48914 13928 ft 395 kts 74°